When you browse on this site, cookies collect data to enhance your experience and personalize the content and advertising you see.
Visit our Privacy Policy to learn more. By continuing to use the site, you agree to this use of cookies and data.
  • In Schweiz
  • Länderverzeichnis
  • Für 7 Tage
  • Wassertemperatur
  • Wetterkarte
  • Widgets
  • user-avatar
    Anmelden

    Stündliche Wetter San Miguel de Tucumán

    Heute, 18 Oktober, Freitag

    Zeit Temperatur Niederschläge Wind Luftdruck Luftfeuchtigkeit
    00:00 +16°C° 0 mm 1 m/S 721 mmHg 68%
    01:00 +16°C° 0 mm 1 m/S 721 mmHg 69%
    02:00 +15°C° 0 mm 1 m/S 721 mmHg 70%
    03:00 +15°C° 0 mm 1 m/S 721 mmHg 71%
    04:00 +14°C° 0 mm 0 m/S 721 mmHg 73%
    05:00 +14°C° 0 mm 0 m/S 722 mmHg 74%
    06:00 +16°C° 0 mm 0 m/S 723 mmHg 68%
    07:00 +19°C° 0 mm 1 m/S 723 mmHg 62%
    08:00 +21°C° 0 mm 1 m/S 724 mmHg 56%
    09:00 +23°C° 0 mm 1 m/S 724 mmHg 53%
    10:00 +24°C° 0 mm 1 m/S 724 mmHg 49%
    11:00 +26°C° 0 mm 2 m/S 724 mmHg 45%
    12:00 +26°C° 0 mm 2 m/S 723 mmHg 44%
    13:00 +26°C° 0 mm 2 m/S 723 mmHg 42%
    14:00 +26°C° 0 mm 2 m/S 722 mmHg 41%
    15:00 +26°C° 0 mm 2 m/S 722 mmHg 44%
    16:00 +25°C° 0 mm 2 m/S 721 mmHg 48%
    17:00 +24°C° 0 mm 1 m/S 721 mmHg 51%
    18:00 +23°C° 0 mm 1 m/S 722 mmHg 53%
    19:00 +22°C° 0 mm 1 m/S 722 mmHg 55%
    20:00 +20°C° 0 mm 0 m/S 723 mmHg 58%
    21:00 +20°C° 0 mm 0 m/S 724 mmHg 58%
    22:00 +21°C° 0 mm 1 m/S 724 mmHg 59%
    23:00 +21°C° 0 mm 1 m/S 725 mmHg 59%

    Morgen, 19 Oktober, Samstag

    Zeit Temperatur Niederschläge Wind Luftdruck Luftfeuchtigkeit
    00:00 +21°C° 0 mm 1 m/S 724 mmHg 62%
    01:00 +18°C° 0 mm 0 m/S 724 mmHg 64%
    02:00 +17°C° 0 mm 0 m/S 724 mmHg 66%
    03:00 +17°C° 0 mm 0 m/S 724 mmHg 67%
    04:00 +17°C° 0 mm 0 m/S 724 mmHg 68%
    05:00 +19°C° 0 mm 1 m/S 724 mmHg 69%
    06:00 +20°C° 0 mm 1 m/S 725 mmHg 67%
    07:00 +20°C° 0 mm 1 m/S 725 mmHg 66%
    08:00 +21°C° 0 mm 1 m/S 725 mmHg 64%
    09:00 +23°C° 0 mm 1 m/S 725 mmHg 58%
    10:00 +24°C° 0 mm 1 m/S 725 mmHg 52%
    11:00 +26°C° 0 mm 1 m/S 724 mmHg 47%
    12:00 +26°C° 0 mm 2 m/S 723 mmHg 47%
    13:00 +26°C° 0 mm 2 m/S 722 mmHg 47%
    14:00 +26°C° 0 mm 2 m/S 721 mmHg 48%
    15:00 +25°C° 0.1 mm 2 m/S 721 mmHg 53%
    16:00 +24°C° 0.1 mm 2 m/S 720 mmHg 58%
    17:00 +22°C° 0.1 mm 3 m/S 720 mmHg 63%
    18:00 +21°C° 0 mm 2 m/S 720 mmHg 65%
    19:00 +20°C° 0 mm 2 m/S 720 mmHg 67%
    20:00 +19°C° 0 mm 2 m/S 720 mmHg 69%
    21:00 +19°C° 0 mm 1 m/S 720 mmHg 72%
    22:00 +19°C° 0 mm 1 m/S 720 mmHg 74%
    23:00 +18°C° 0 mm 1 m/S 720 mmHg 76%

    übermorgen, 20 Oktober, Sonntag

    Zeit Temperatur Niederschläge Wind Luftdruck Luftfeuchtigkeit
    00:00 +18°C° 0 mm 1 m/S 719 mmHg 78%
    01:00 +18°C° 0 mm 1 m/S 719 mmHg 81%
    02:00 +18°C° 0 mm 1 m/S 719 mmHg 83%
    03:00 +16°C° 0 mm 1 m/S 719 mmHg 85%
    04:00 +16°C° 0 mm 1 m/S 718 mmHg 87%
    05:00 +14°C° 0 mm 0 m/S 718 mmHg 89%
    06:00 +18°C° 0 mm 1 m/S 719 mmHg 84%
    07:00 +19°C° 0 mm 1 m/S 719 mmHg 78%
    08:00 +20°C° 0 mm 1 m/S 719 mmHg 73%
    09:00 +20°C° 0 mm 2 m/S 719 mmHg 69%
    10:00 +21°C° 0 mm 2 m/S 719 mmHg 65%
    11:00 +23°C° 0 mm 2 m/S 718 mmHg 60%
    12:00 +25°C° 0 mm 2 m/S 718 mmHg 56%
    13:00 +26°C° 0 mm 2 m/S 718 mmHg 51%
    14:00 +28°C° 0 mm 2 m/S 718 mmHg 46%
    15:00 +27°C° 0 mm 2 m/S 718 mmHg 46%
    16:00 +27°C° 0 mm 2 m/S 718 mmHg 46%
    17:00 +27°C° 0 mm 2 m/S 718 mmHg 46%
    18:00 +25°C° 0 mm 2 m/S 719 mmHg 51%
    19:00 +24°C° 0 mm 1 m/S 719 mmHg 57%
    20:00 +22°C° 0 mm 1 m/S 720 mmHg 62%
    21:00 +22°C° 0 mm 1 m/S 721 mmHg 64%
    22:00 +21°C° 0 mm 2 m/S 721 mmHg 65%
    23:00 +20°C° 0 mm 2 m/S 722 mmHg 67%

    21 Oktober, Montag

    Zeit Temperatur Niederschläge Wind Luftdruck Luftfeuchtigkeit
    00:00 +20°C° 0 mm 2 m/S 721 mmHg 70%
    01:00 +20°C° 0 mm 1 m/S 721 mmHg 74%
    02:00 +20°C° 0 mm 1 m/S 721 mmHg 78%
    03:00 +19°C° 0 mm 1 m/S 721 mmHg 82%
    04:00 +18°C° 0 mm 1 m/S 721 mmHg 85%
    05:00 +16°C° 0 mm 1 m/S 721 mmHg 89%
    06:00 +19°C° 0 mm 1 m/S 721 mmHg 82%
    07:00 +20°C° 0 mm 1 m/S 722 mmHg 76%
    08:00 +22°C° 0 mm 1 m/S 722 mmHg 69%
    09:00 +23°C° 0 mm 1 m/S 722 mmHg 63%
    10:00 +25°C° 0 mm 2 m/S 722 mmHg 57%
    11:00 +27°C° 0 mm 2 m/S 722 mmHg 51%
    12:00 +27°C° 0.1 mm 2 m/S 722 mmHg 49%
    13:00 +28°C° 0.1 mm 2 m/S 721 mmHg 47%
    14:00 +28°C° 0.1 mm 2 m/S 720 mmHg 45%
    15:00 +27°C° 0.1 mm 2 m/S 720 mmHg 48%
    16:00 +26°C° 0.1 mm 2 m/S 719 mmHg 51%
    17:00 +25°C° 0.1 mm 2 m/S 719 mmHg 54%
    18:00 +24°C° 0 mm 1 m/S 719 mmHg 56%
    19:00 +24°C° 0 mm 1 m/S 720 mmHg 58%
    20:00 +23°C° 0 mm 1 m/S 720 mmHg 60%
    21:00 +23°C° 0 mm 1 m/S 721 mmHg 59%
    22:00 +23°C° 0 mm 1 m/S 721 mmHg 59%
    23:00 +23°C° 0 mm 1 m/S 721 mmHg 59%

    22 Oktober, Dienstag

    Zeit Temperatur Niederschläge Wind Luftdruck Luftfeuchtigkeit
    00:00 +21°C° 0 mm 1 m/S 721 mmHg 60%
    01:00 +20°C° 0 mm 1 m/S 721 mmHg 62%
    02:00 +18°C° 0 mm 2 m/S 720 mmHg 63%
    03:00 +18°C° 0 mm 2 m/S 720 mmHg 65%
    04:00 +18°C° 0 mm 1 m/S 721 mmHg 67%
    05:00 +18°C° 0 mm 1 m/S 721 mmHg 69%
    06:00 +19°C° 0 mm 1 m/S 721 mmHg 63%
    07:00 +21°C° 0 mm 1 m/S 722 mmHg 57%
    08:00 +22°C° 0 mm 1 m/S 722 mmHg 51%
    09:00 +24°C° 0 mm 1 m/S 722 mmHg 46%
    10:00 +26°C° 0 mm 2 m/S 721 mmHg 41%
    11:00 +28°C° 0 mm 2 m/S 721 mmHg 36%
    12:00 +29°C° 0 mm 2 m/S 720 mmHg 34%
    13:00 +30°C° 0 mm 2 m/S 720 mmHg 33%
    14:00 +30°C° 0 mm 3 m/S 719 mmHg 31%
    15:00 +30°C° 0 mm 3 m/S 718 mmHg 32%
    16:00 +29°C° 0 mm 3 m/S 718 mmHg 33%
    17:00 +29°C° 0 mm 3 m/S 718 mmHg 35%
    18:00 +27°C° 0 mm 2 m/S 718 mmHg 38%
    19:00 +26°C° 0 mm 2 m/S 719 mmHg 41%
    20:00 +24°C° 0 mm 1 m/S 719 mmHg 44%
    21:00 +24°C° 0 mm 2 m/S 719 mmHg 45%
    22:00 +23°C° 0 mm 2 m/S 720 mmHg 46%
    23:00 +23°C° 0 mm 2 m/S 720 mmHg 46%

    23 Oktober, Mittwoch

    Zeit Temperatur Niederschläge Wind Luftdruck Luftfeuchtigkeit
    00:00 +21°C° 0 mm 2 m/S 720 mmHg 50%
    01:00 +20°C° 0 mm 2 m/S 720 mmHg 53%
    02:00 +19°C° 0 mm 2 m/S 720 mmHg 56%
    03:00 +19°C° 0 mm 1 m/S 720 mmHg 58%
    04:00 +18°C° 0 mm 1 m/S 720 mmHg 60%
    05:00 +18°C° 0 mm 1 m/S 720 mmHg 62%
    06:00 +19°C° 0 mm 1 m/S 721 mmHg 56%
    07:00 +21°C° 0 mm 1 m/S 721 mmHg 51%
    08:00 +23°C° 0 mm 1 m/S 722 mmHg 45%
    09:00 +25°C° 0 mm 1 m/S 722 mmHg 41%
    10:00 +27°C° 0 mm 1 m/S 722 mmHg 37%
    11:00 +29°C° 0 mm 1 m/S 722 mmHg 33%
    12:00 +30°C° 0 mm 2 m/S 721 mmHg 31%
    13:00 +30°C° 0 mm 2 m/S 720 mmHg 30%
    14:00 +31°C° 0 mm 3 m/S 719 mmHg 29%
    15:00 +30°C° 0 mm 3 m/S 719 mmHg 31%
    16:00 +30°C° 0 mm 3 m/S 719 mmHg 33%
    17:00 +29°C° 0 mm 3 m/S 718 mmHg 35%
    18:00 +28°C° 0 mm 2 m/S 719 mmHg 37%
    19:00 +27°C° 0 mm 2 m/S 719 mmHg 40%
    20:00 +25°C° 0 mm 1 m/S 720 mmHg 43%
    21:00 +25°C° 0 mm 1 m/S 720 mmHg 44%
    22:00 +24°C° 0 mm 1 m/S 720 mmHg 46%
    23:00 +24°C° 0 mm 1 m/S 721 mmHg 48%
    Mehr zeigen